Home > Weather > Bismarck > Past weeks

Flag for USA Weather for the Past 2 Weeks in Bismarck, North Dakota, USA

Now
72 °F

Sunny.


Feels Like: 76 °F
Forecast: 38 / 78 °F
Wind: 7 mph from North

Location: Bismarck Municipal Airport

Current Time: May 4, 2016 at 1:30:09 PM

Latest Report: May 4, 2016 at 12:52 PM


Visibility: 10 mi

Pressure: 30.07 "Hg (28.34 "Hg at 513m altitude)

Humidity: 26%

Dew Point: 35 °F

Location of BismarckLocation

Historic Weather in Bismarck — Graph

°F

Bismarck Temperature Yesterday

Maximum temperature yesterday: 77 °F (at 1:52 PM)
Minimum temperature yesterday: 38 °F (at 3:55 AM)
Average temperature yesterday: 59 °F

High & Low Weather Summary for the Past Weeks

 TemperatureHumidityPressure
High77 °F (May 3, 1:52 PM)100% (Apr 20, 3:52 AM)30.37 "Hg (Apr 20, 3:52 AM)
Low30 °F (Apr 22, 6:52 AM)23% (May 3, 4:52 PM)29.56 "Hg (Apr 24, 2:02 PM)
Average49 °F68%30.01 "Hg
* Reported Apr 19 11:52 AM — May 4 11:52 AM, Bismarck, Weather by CustomWeather, © 2016

Note: Actual official high and low records may vary slightly from our data, if they occured in-between our weather recording intervals... More about our weather records

Advertising

Bismarck Weather History for the Previous 24 Hours

Scroll right to see more
 ConditionsComfort  
Time TempWeatherWind HumidityBarometerVisibility
11:52 AM
Wed, May 4
69 °FSunny.5 mph27%30.09 "Hg10 mi
10:52 AM63 °FSunny.6 mph35%30.10 "Hg10 mi
9:52 AM58 °FSunny.5 mph44%30.12 "Hg10 mi
8:52 AM48 °FSunny.3 mph63%30.14 "Hg10 mi
7:52 AM43 °FSunny.No wind79%30.14 "Hg10 mi
6:52 AM37 °FClear.No wind82%30.13 "Hg10 mi
5:52 AM36 °FClear.No wind85%30.13 "Hg10 mi
4:52 AM38 °FClear.No wind79%30.12 "Hg10 mi
3:52 AM37 °FClear.No wind86%30.12 "Hg10 mi
2:52 AM40 °FClear.3 mph70%30.11 "Hg10 mi
1:52 AM44 °FClear.No wind60%30.09 "Hg10 mi
12:52 AM46 °FClear.3 mph58%30.08 "Hg10 mi
11:52 PM
Tue, May 3
50 °FClear.3 mph46%30.06 "Hg10 mi
10:52 PM52 °FClear.9 mph43%30.04 "Hg10 mi
9:52 PM60 °FSunny.10 mph30%30.03 "Hg10 mi
8:52 PM65 °FSunny.14 mph23%30.01 "Hg10 mi
7:52 PM70 °FSunny.14 mph25%29.99 "Hg10 mi
6:52 PM73 °FSunny.21 mph23%29.98 "Hg10 mi
5:52 PM74 °FSunny.17 mph24%29.98 "Hg10 mi
4:52 PM75 °FSunny.18 mph23%29.98 "Hg10 mi
3:52 PM75 °FSunny.17 mph24%29.98 "Hg10 mi
2:52 PM76 °FSunny.21 mph25%29.98 "Hg10 mi
1:52 PM77 °FSunny.20 mph26%29.97 "Hg10 mi
Weather by CustomWeather, © 2016

See weather overviewHow to use our weather pages